Regional Weather Roundup
Issued by NWS

Home | Current Version | Previous Version | Text Only | Print | Product List | Glossary Off
Versions: 1 2 3 4 5 6 7 8 9 10 11 12 13 14 15 16 17 18 19 20 21 22 23 24 25 26 27 28 29 30 31 32 33 34 35 36 37 38 39 40 41 42 43 44 45 46 47 48 49 50

387
ASUS43 KTOP 121959
RWRKS

WEATHER ROUNDUP FOR KANSAS
NATIONAL WEATHER SERVICE GOODLAND KS
200 PM CST FRI FEB 12 2016

NOTE:  "FAIR" INDICATES FEW OR NO CLOUDS BELOW 12,000 FEET WITH NO
SIGNIFICANT WEATHER AND/OR OBSTRUCTIONS TO VISIBILITY.

KSZ001>006-013>018-027>032-041>047-122100-
NORTHWEST KANSAS

CITY           SKY/WX    TMP DP  RH WIND       PRES   REMARKS
GOODLAND       CLOUDY    39  33  79 E16       30.35F WCI  30
HAYS           CLOUDY    37  21  52 NE10      30.43F WCI  30
HILL CITY      CLOUDY    36  30  79 E10       30.43F WCI  28
RUSSELL        CLOUDY    34  27  75 NE12      30.43F WCI  25
$$

KSZ061>065-074>080-084>089-122100-
SOUTHWEST KANSAS

CITY           SKY/WX    TMP DP  RH WIND       PRES   REMARKS
DODGE CITY     SUNNY     41  29  62 NE14      30.38F
ELKHART          N/A     60  30  32 SE10        N/A
GARDEN CITY    SUNNY     50  33  52 E10       30.36F
GREAT BEND     CLOUDY    36  23  60 NE13      30.45F WCI  27
LIBERAL        SUNNY     57  34  41 E7        30.35F
$$

KSZ066>073-081>083-090>101-122100-
SOUTHEAST KANSAS

CITY           SKY/WX    TMP DP  RH WIND       PRES   REMARKS
CHANUTE        SUNNY     44  26  49 N16       30.40F
COFFEYVILLE    SUNNY     47  26  44 N14G22    30.40S
HUTCHINSON     CLOUDY    38  25  59 N15       30.45F WCI  29
MEDICINE LODGE   N/A     43  29  57 N16       30.41F
NEWTON         PTSUNNY   37  25  60 N21       30.45S WCI  27
PARSONS        SUNNY     46  26  45 N14G20    30.41S
WICHITA INTL   PTSUNNY   42  26  53 NE14      30.43F
WICHITA JABRA  SUNNY     42  26  53 N15G26    30.42F
WINFIELD       SUNNY     46  27  47 NE12      30.42S
$$

KSZ007>012-019>026-033>040-048>060-102>105-122100-
NORTHEAST KANSAS

CITY           SKY/WX    TMP DP  RH WIND       PRES   REMARKS
CONCORDIA      CLOUDY    34  23  64 N10       30.46F WCI  26
EMPORIA        MOSUNNY   41  24  51 N16G24    30.43F
LAWRENCE       SUNNY     38  18  44 N18G26    30.45S WCI  28
MANHATTAN      CLOUDY    36  23  59 N12G18    30.48S WCI  28
OLATHE IND     MOSUNNY   38  20  48 NW24G30   30.44R WCI  27
OLATHE EXE     SUNNY     37  18  46 N14G26    30.42R WCI  28
SALINA         CLOUDY    38  24  57 N13       30.48F WCI  30
TOPEKA BILLARD MOSUNNY   39  20  46 N15G21    30.46S WCI  31
TOPEKA FORBES  SUNNY     39  21  48 N10G23    30.44S WCI  32
$$




USA.gov is the U.S. government's official web portal to all federal, state and local government web resources and services.